Hourly Data Report for June 30, 2021

BORDEN AWOS
ONTARIO
Current Station Operator: DND

44°16'20.000" N
79°54'42.000" W
222.50 m
611B002
71534
YBN

Download Data

Hourly Data (June 2021)
Hourly Data Report for June 30, 2021
TIME
LST
Temp Definition
°C
Dew Point Definition
°C
Rel Hum Definition
%
Precip. Amount Definition
mm

Wind Dir Definition
10's deg

Wind Spd Definition
km/h
Visibility Definition
km
Stn Press Definition
kPa
Hmdx Definition


Wind Chill Definition


Weather Definition


00:00 21.2 20.4 95   21 13 12.9 99.10 29   Moderate Rain
01:00 21.2 20.5 96   21 13 14.5 99.01 29   LegendNANA
02:00 21.3 20.7 96   21 11 14.5 98.98 29   LegendNANA
03:00 21.2 20.7 97   22 7 14.5 98.94 29   LegendNANA
04:00 21.2 20.8 98   22 9 14.5 98.93 29   Rain
05:00 21.3 20.8 97   22 9 14.5 98.94 30   LegendNANA
06:00 21.4 21.1 98   6 4 11.3 98.91 30   LegendNANA
07:00 22.6 20.9 90   24 7 14.5 98.91 31   LegendNANA
08:00 23.2 20.6 85   27 11 14.5 98.90 31   LegendNANA
09:00 23.7 19.9 79   26 11 14.5 98.89 31   LegendNANA
10:00 24.7 18.7 69   26 13 14.5 98.90 31   LegendNANA
11:00 23.8 17.5 68   30 20 14.5 98.90 29   LegendNANA
12:00 24.5 18.5 69   27 19 14.5 98.94 31   LegendNANA
13:00 24.2 18.0 68   28 20 14.5 98.89 30   LegendNANA
14:00 23.4 17.7 70   30 17 14.5 98.88 29   LegendNANA
15:00 23.8 17.0 66   31 20 14.5 98.81 29   LegendNANA
16:00 24.2 17.0 64   30 9 14.5 98.81 29   LegendNANA
17:00 23.7 16.4 64   29 17 14.5 98.85 29   LegendNANA
18:00 23.3 16.6 66   31 13 14.5 98.81 28   LegendNANA
19:00 22.9 16.8 69   33 6 14.5 98.82 28   LegendNANA
20:00 20.8 17.1 79   32 4 14.5 98.82 26   LegendNANA
21:00 18.5 17.2 92   33 6 14.5 98.84     LegendNANA
22:00 17.5 16.8 96     0 14.5 98.84     LegendNANA
23:00 16.0 15.5 97   21 7 14.5 98.77     LegendNANA

Notes on Data Quality.

Legend

  • E = Estimated
  • M = Missing
  • NA = Not Available*
  • [empty] = Indicates an unobserved value
Date modified: